Time,TemperatureF,DewpointF,PressureIn,WindDirection,WindDirectionDegrees,WindSpeedMPH,WindSpeedGustMPH,Humidity,HourlyPrecipIn,Conditions,Clouds,dailyrainin,SoftwareType,DateUTC
2013-08-02 00:12:00,59.0,50.7,29.88,ENE,67,0.0,-999.0,74,-99.99,,,0.00,Acu-Link.com,2013-08-02 07:12:00,
2013-08-02 00:27:00,59.0,50.7,29.89,ENE,67,1.6,-999.0,74,-99.99,,,0.00,Acu-Link.com,2013-08-02 07:27:00,
2013-08-02 00:42:00,59.0,50.4,29.90,WNW,292,0.0,-999.0,73,-99.99,,,0.00,Acu-Link.com,2013-08-02 07:42:00,
2013-08-02 00:57:00,57.2,49.3,29.90,West,270,0.0,-999.0,75,-99.99,,,0.00,Acu-Link.com,2013-08-02 07:57:00,
2013-08-02 01:13:00,57.2,49.7,29.89,SE,135,0.0,-999.0,76,-99.99,,,0.00,Acu-Link.com,2013-08-02 08:13:00,
2013-08-02 01:28:00,57.2,50.1,29.89,NE,45,0.0,-999.0,77,-99.99,,,0.00,Acu-Link.com,2013-08-02 08:28:00,
2013-08-02 01:43:00,57.2,50.1,29.89,SSW,202,0.0,-999.0,77,-99.99,,,0.00,Acu-Link.com,2013-08-02 08:43:00,
2013-08-02 01:59:00,57.2,50.4,29.88,ESE,112,0.0,-999.0,78,-99.99,,,0.00,Acu-Link.com,2013-08-02 08:59:00,
2013-08-02 02:14:00,57.2,52.1,29.88,SSW,202,0.0,-999.0,83,-99.99,,,0.00,Acu-Link.com,2013-08-02 09:14:00,
2013-08-02 02:29:00,55.4,51.3,29.88,East,90,0.0,-999.0,86,-99.99,,,0.00,Acu-Link.com,2013-08-02 09:29:00,
2013-08-02 02:44:00,55.4,51.3,29.88,NE,45,0.0,-999.0,86,-99.99,,,0.00,Acu-Link.com,2013-08-02 09:44:00,
2013-08-02 02:59:00,55.4,51.0,29.88,East,90,0.0,-999.0,85,-99.99,,,0.00,Acu-Link.com,2013-08-02 09:59:00,
2013-08-02 03:14:00,55.4,51.0,29.88,NNW,337,0.0,-999.0,85,-99.99,,,0.00,Acu-Link.com,2013-08-02 10:14:00,
2013-08-02 03:29:00,55.4,50.3,29.89,SSE,157,0.0,-999.0,83,-99.99,,,0.00,Acu-Link.com,2013-08-02 10:29:00,
2013-08-02 03:44:00,55.4,50.6,29.89,South,180,0.0,-999.0,84,-99.99,,,0.00,Acu-Link.com,2013-08-02 10:44:00,
2013-08-02 04:00:00,55.4,50.3,29.90,South,180,0.0,-999.0,83,-99.99,,,0.00,Acu-Link.com,2013-08-02 11:00:00,
2013-08-02 04:15:00,55.4,51.0,29.90,NNE,22,0.0,-999.0,85,-99.99,,,0.00,Acu-Link.com,2013-08-02 11:15:00,
2013-08-02 04:30:00,55.4,51.0,29.90,SE,135,0.0,-999.0,85,-99.99,,,0.00,Acu-Link.com,2013-08-02 11:30:00,
2013-08-02 04:45:00,55.4,51.0,29.89,East,90,0.0,-999.0,85,-99.99,,,0.00,Acu-Link.com,2013-08-02 11:45:00,
2013-08-02 05:00:00,55.4,51.0,29.90,South,180,0.0,-999.0,85,-99.99,,,0.00,Acu-Link.com,2013-08-02 12:00:00,
2013-08-02 05:15:00,55.4,51.3,29.90,South,180,0.0,-999.0,86,-99.99,,,0.00,Acu-Link.com,2013-08-02 12:15:00,
2013-08-02 05:31:00,55.4,51.3,29.90,South,180,0.0,-999.0,86,-99.99,,,0.00,Acu-Link.com,2013-08-02 12:31:00,
2013-08-02 06:17:00,55.4,51.6,29.90,ENE,67,0.0,-999.0,87,-99.99,,,0.00,Acu-Link.com,2013-08-02 13:17:00,
2013-08-02 06:32:00,55.4,51.3,29.91,ENE,67,0.0,-999.0,86,-99.99,,,0.00,Acu-Link.com,2013-08-02 13:32:00,
2013-08-02 06:47:00,55.4,51.3,29.91,NE,45,0.0,-999.0,86,-99.99,,,0.00,Acu-Link.com,2013-08-02 13:47:00,
2013-08-02 07:02:00,55.4,51.0,29.92,ESE,112,0.0,-999.0,85,-99.99,,,0.00,Acu-Link.com,2013-08-02 14:02:00,
2013-08-02 07:17:00,55.4,50.6,29.92,ESE,112,0.0,-999.0,84,-99.99,,,0.00,Acu-Link.com,2013-08-02 14:17:00,
2013-08-02 07:32:00,57.2,52.4,29.92,East,90,0.0,-999.0,84,-99.99,,,0.00,Acu-Link.com,2013-08-02 14:32:00,
2013-08-02 07:47:00,57.2,52.4,29.92,NW,315,0.0,-999.0,84,-99.99,,,0.00,Acu-Link.com,2013-08-02 14:47:00,
2013-08-02 08:03:00,59.0,53.8,29.93,South,180,0.0,-999.0,83,-99.99,,,0.00,Acu-Link.com,2013-08-02 15:03:00,
2013-08-02 08:18:00,59.0,53.5,29.93,ENE,67,0.0,-999.0,82,-99.99,,,0.00,Acu-Link.com,2013-08-02 15:18:00,
2013-08-02 08:33:00,60.8,54.6,29.93,ESE,112,1.1,-999.0,80,-99.99,,,0.00,Acu-Link.com,2013-08-02 15:33:00,
2013-08-02 08:49:00,60.8,53.9,29.93,ENE,67,0.0,-999.0,78,-99.99,,,0.00,Acu-Link.com,2013-08-02 15:49:00,
2013-08-02 09:04:00,62.6,54.9,29.93,NW,315,1.1,-999.0,76,-99.99,,,0.00,Acu-Link.com,2013-08-02 16:04:00,
2013-08-02 09:19:00,62.6,54.6,29.93,NW,315,2.0,-999.0,75,-99.99,,,0.00,Acu-Link.com,2013-08-02 16:19:00,
2013-08-02 09:34:00,62.6,54.9,29.93,ESE,112,0.0,-999.0,76,-99.99,,,0.00,Acu-Link.com,2013-08-02 16:34:00,
2013-08-02 09:50:00,62.6,54.2,29.93,NE,45,2.7,-999.0,74,-99.99,,,0.00,Acu-Link.com,2013-08-02 16:50:00,
2013-08-02 10:05:00,62.6,53.8,29.93,NW,315,2.7,-999.0,73,-99.99,,,0.00,Acu-Link.com,2013-08-02 17:05:00,
2013-08-02 10:20:00,64.4,55.2,29.93,NE,45,1.6,-999.0,72,-99.99,,,0.00,Acu-Link.com,2013-08-02 17:20:00,
2013-08-02 10:35:00,64.4,55.2,29.93,West,270,1.6,-999.0,72,-99.99,,,0.00,Acu-Link.com,2013-08-02 17:35:00,
2013-08-02 10:51:00,64.4,54.4,29.93,West,270,2.0,-999.0,70,-99.99,,,0.00,Acu-Link.com,2013-08-02 17:51:00,
2013-08-02 11:06:00,66.2,55.7,29.93,North,0,1.1,-999.0,69,-99.99,,,0.00,Acu-Link.com,2013-08-02 18:06:00,
2013-08-02 11:21:00,68.0,55.8,29.93,NNE,22,0.0,-999.0,65,-99.99,,,0.00,Acu-Link.com,2013-08-02 18:21:00,
2013-08-02 11:36:00,68.0,54.5,29.93,SE,135,1.6,-999.0,62,-99.99,,,0.00,Acu-Link.com,2013-08-02 18:36:00,
2013-08-02 11:52:00,68.0,54.9,29.93,North,0,2.7,-999.0,63,-99.99,,,0.00,Acu-Link.com,2013-08-02 18:52:00,
2013-08-02 12:07:00,69.8,55.7,29.93,South,180,4.0,-999.0,61,-99.99,,,0.00,Acu-Link.com,2013-08-02 19:07:00,
2013-08-02 12:22:00,69.8,54.8,29.93,West,270,4.0,-999.0,59,-99.99,,,0.00,Acu-Link.com,2013-08-02 19:22:00,
2013-08-02 12:38:00,71.6,54.1,29.92,North,0,0.0,-999.0,54,-99.99,,,0.00,Acu-Link.com,2013-08-02 19:38:00,
2013-08-02 12:53:00,73.4,53.6,29.92,NNW,337,2.7,-999.0,50,-99.99,,,0.00,Acu-Link.com,2013-08-02 19:53:00,
2013-08-02 13:08:00,73.4,53.6,29.92,West,270,5.6,-999.0,50,-99.99,,,0.00,Acu-Link.com,2013-08-02 20:08:00,
2013-08-02 13:23:00,77.0,55.8,29.92,NW,315,1.6,-999.0,48,-99.99,,,0.00,Acu-Link.com,2013-08-02 20:23:00,
2013-08-02 13:38:00,77.0,55.8,29.91,North,0,2.0,-999.0,48,-99.99,,,0.00,Acu-Link.com,2013-08-02 20:38:00,
2013-08-02 13:53:00,75.2,55.8,29.91,SW,225,4.0,-999.0,51,-99.99,,,0.00,Acu-Link.com,2013-08-02 20:53:00,
2013-08-02 14:09:00,78.8,56.2,29.91,North,0,2.7,-999.0,46,-99.99,,,0.00,Acu-Link.com,2013-08-02 21:09:00,
2013-08-02 14:24:00,78.8,56.2,29.90,North,0,2.7,-999.0,46,-99.99,,,0.00,Acu-Link.com,2013-08-02 21:24:00,
2013-08-02 14:39:00,80.6,56.6,29.91,South,180,2.0,-999.0,44,-99.99,,,0.00,Acu-Link.com,2013-08-02 21:39:00,
2013-08-02 14:54:00,77.0,55.8,29.90,North,0,1.6,-999.0,48,-99.99,,,0.00,Acu-Link.com,2013-08-02 21:54:00,
2013-08-02 15:10:00,78.8,55.6,29.90,SSW,202,2.7,-999.0,45,-99.99,,,0.00,Acu-Link.com,2013-08-02 22:10:00,
2013-08-02 15:25:00,78.8,55.6,29.89,NNW,337,1.6,-999.0,45,-99.99,,,0.00,Acu-Link.com,2013-08-02 22:25:00,
2013-08-02 15:40:00,78.8,55.6,29.89,SSW,202,3.1,-999.0,45,-99.99,,,0.00,Acu-Link.com,2013-08-02 22:40:00,
2013-08-02 15:55:00,82.4,55.6,29.88,West,270,3.1,-999.0,40,-99.99,,,0.00,Acu-Link.com,2013-08-02 22:55:00,
2013-08-02 16:10:00,82.4,56.3,29.87,NW,315,4.7,-999.0,41,-99.99,,,0.00,Acu-Link.com,2013-08-02 23:10:00,
2013-08-02 16:26:00,80.6,53.3,29.87,NW,315,3.6,-999.0,39,-99.99,,,0.00,Acu-Link.com,2013-08-02 23:26:00,
2013-08-02 16:56:00,80.6,53.3,29.87,North,0,3.1,-999.0,39,-99.99,,,0.00,Acu-Link.com,2013-08-02 23:56:00,
2013-08-02 17:12:00,77.0,56.9,29.88,NE,45,2.7,-999.0,50,-99.99,,,0.00,Acu-Link.com,2013-08-03 00:12:00,
2013-08-02 17:27:00,73.4,56.7,29.88,East,90,2.0,-999.0,56,-99.99,,,0.00,Acu-Link.com,2013-08-03 00:27:00,
2013-08-02 17:42:00,71.6,57.4,29.89,NE,45,1.6,-999.0,61,-99.99,,,0.00,Acu-Link.com,2013-08-03 00:42:00,
2013-08-02 17:57:00,69.8,56.2,29.89,North,0,0.0,-999.0,62,-99.99,,,0.00,Acu-Link.com,2013-08-03 00:57:00,
2013-08-02 18:12:00,69.8,56.6,29.90,SW,225,0.0,-999.0,63,-99.99,,,0.00,Acu-Link.com,2013-08-03 01:12:00,
2013-08-02 18:27:00,69.8,57.9,29.89,East,90,0.0,-999.0,66,-99.99,,,0.00,Acu-Link.com,2013-08-03 01:27:00,
2013-08-02 18:43:00,69.8,58.8,29.90,SW,225,1.6,-999.0,68,-99.99,,,0.00,Acu-Link.com,2013-08-03 01:43:00,
2013-08-02 18:58:00,68.0,58.2,29.90,West,270,0.0,-999.0,71,-99.99,,,0.00,Acu-Link.com,2013-08-03 01:58:00,
2013-08-02 19:13:00,68.0,59.4,29.90,West,270,0.0,-999.0,74,-99.99,,,0.00,Acu-Link.com,2013-08-03 02:13:00,
2013-08-02 19:28:00,68.0,59.0,29.91,South,180,0.0,-999.0,73,-99.99,,,0.00,Acu-Link.com,2013-08-03 02:28:00,
2013-08-02 19:43:00,68.0,59.4,29.91,SSE,157,0.0,-999.0,74,-99.99,,,0.00,Acu-Link.com,2013-08-03 02:43:00,
2013-08-02 19:58:00,68.0,59.4,29.92,South,180,0.0,-999.0,74,-99.99,,,0.00,Acu-Link.com,2013-08-03 02:58:00,
2013-08-02 20:14:00,66.2,57.7,29.92,ESE,112,0.0,-999.0,74,-99.99,,,0.00,Acu-Link.com,2013-08-03 03:14:00,
2013-08-02 20:29:00,64.4,55.6,29.91,West,270,0.0,-999.0,73,-99.99,,,0.00,Acu-Link.com,2013-08-03 03:29:00,
2013-08-02 20:44:00,64.4,56.3,29.92,West,270,0.0,-999.0,75,-99.99,,,0.00,Acu-Link.com,2013-08-03 03:44:00,
2013-08-02 20:59:00,64.4,56.3,29.93,ESE,112,0.0,-999.0,75,-99.99,,,0.00,Acu-Link.com,2013-08-03 03:59:00,
2013-08-02 21:14:00,62.6,55.6,29.93,NNE,22,1.6,-999.0,78,-99.99,,,0.00,Acu-Link.com,2013-08-03 04:14:00,
2013-08-02 21:29:00,64.4,57.0,29.93,NE,45,0.0,-999.0,77,-99.99,,,0.00,Acu-Link.com,2013-08-03 04:29:00,
2013-08-02 21:44:00,62.6,54.9,29.94,East,90,0.0,-999.0,76,-99.99,,,0.00,Acu-Link.com,2013-08-03 04:44:00,
2013-08-02 21:59:00,62.6,54.9,29.94,East,90,0.0,-999.0,76,-99.99,,,0.00,Acu-Link.com,2013-08-03 04:59:00,
2013-08-02 22:14:00,62.6,57.4,29.94,East,90,0.0,-999.0,83,-99.99,,,0.00,Acu-Link.com,2013-08-03 05:14:00,
2013-08-02 22:29:00,62.6,58.3,29.94,SSW,202,0.0,-999.0,86,-99.99,,,0.00,Acu-Link.com,2013-08-03 05:29:00,
2013-08-02 22:45:00,60.8,57.2,29.95,East,90,0.0,-999.0,88,-99.99,,,0.00,Acu-Link.com,2013-08-03 05:45:00,
2013-08-02 23:00:00,60.8,57.2,29.95,East,90,0.0,-999.0,88,-99.99,,,0.00,Acu-Link.com,2013-08-03 06:00:00,
2013-08-02 23:15:00,60.8,57.5,29.95,East,90,0.0,-999.0,89,-99.99,,,0.01,Acu-Link.com,2013-08-03 06:15:00,
2013-08-02 23:30:00,60.8,57.5,29.96,NNW,337,0.0,-999.0,89,-99.99,,,0.01,Acu-Link.com,2013-08-03 06:30:00,
2013-08-02 23:45:00,60.8,57.8,29.97,NW,315,1.6,-999.0,90,-99.99,,,0.01,Acu-Link.com,2013-08-03 06:45:00,